When you browse on this site, cookies collect data to enhance your experience and personalize the content and advertising you see.
Visit our Privacy Policy to learn more. By continuing to use the site, you agree to this use of cookies and data.
  • In Hungary
  • List of Countries
  • For 7 days
  • Water Temperature
  • Weather Map
  • News
  • Weather Widgets
  • user-avatar
    Login

    Hourly Weather Trutnov

    Today, 22 February, Saturday

    Time Temperature Precipitation Wind Pressure Humidity
    00:00 -1°C° 0 mm 2 mps 727 mmHg 87%
    01:00 -2°C° 0 mm 2 mps 727 mmHg 88%
    02:00 -1°C° 0 mm 2 mps 726 mmHg 89%
    03:00 -1°C° 0 mm 2 mps 726 mmHg 91%
    04:00 -1°C° 0 mm 2 mps 726 mmHg 92%
    05:00 -1°C° 0 mm 3 mps 725 mmHg 92%
    06:00 -2°C° 0 mm 4 mps 725 mmHg 92%
    07:00 -1°C° 0 mm 4 mps 725 mmHg 91%
    08:00 -1°C° 0 mm 5 mps 725 mmHg 86%
    09:00 -1°C° 0 mm 6 mps 724 mmHg 81%
    10:00 +1°C° 0 mm 6 mps 724 mmHg 75%
    11:00 +2°C° 0 mm 7 mps 724 mmHg 71%
    12:00 +3°C° 0 mm 7 mps 723 mmHg 66%
    13:00 +4°C° 0 mm 7 mps 723 mmHg 62%
    14:00 +4°C° 0 mm 6 mps 722 mmHg 61%
    15:00 +5°C° 0 mm 6 mps 722 mmHg 61%
    16:00 +5°C° 0 mm 6 mps 721 mmHg 60%
    17:00 +5°C° 0 mm 6 mps 721 mmHg 62%
    18:00 +4°C° 0 mm 6 mps 721 mmHg 63%
    19:00 +4°C° 0 mm 6 mps 721 mmHg 65%
    20:00 +4°C° 0 mm 6 mps 721 mmHg 67%
    21:00 +4°C° 0 mm 7 mps 721 mmHg 68%
    22:00 +4°C° 0 mm 7 mps 721 mmHg 70%
    23:00 +4°C° 0.2 mm 7 mps 721 mmHg 75%

    Tomorrow, 23 February, Sunday

    Time Temperature Precipitation Wind Pressure Humidity
    00:00 +4°C° 0.2 mm 7 mps 721 mmHg 80%
    01:00 +4°C° 0.2 mm 7 mps 721 mmHg 85%
    02:00 +4°C° 0.8 mm 7 mps 721 mmHg 86%
    03:00 +3°C° 0.8 mm 6 mps 721 mmHg 88%
    04:00 +3°C° 0.8 mm 6 mps 720 mmHg 90%
    05:00 +2°C° 0.4 mm 6 mps 720 mmHg 90%
    06:00 +2°C° 0.4 mm 5 mps 721 mmHg 90%
    07:00 +2°C° 0.4 mm 5 mps 721 mmHg 89%
    08:00 +2°C° 0.5 mm 5 mps 720 mmHg 90%
    09:00 +2°C° 0.5 mm 5 mps 720 mmHg 90%
    10:00 +3°C° 0.5 mm 5 mps 720 mmHg 91%
    11:00 +3°C° 0.7 mm 4 mps 720 mmHg 92%
    12:00 +3°C° 0.7 mm 4 mps 719 mmHg 93%
    13:00 +3°C° 0.7 mm 4 mps 718 mmHg 94%
    14:00 +3°C° 2 mm 5 mps 716 mmHg 94%
    15:00 +4°C° 2 mm 6 mps 714 mmHg 93%
    16:00 +5°C° 2 mm 7 mps 712 mmHg 93%
    17:00 +6°C° 1.3 mm 9 mps 711 mmHg 89%
    18:00 +7°C° 1.3 mm 10 mps 710 mmHg 85%
    19:00 +8°C° 1.3 mm 11 mps 709 mmHg 81%
    20:00 +5°C° 1.3 mm 12 mps 710 mmHg 77%
    21:00 +4°C° 1.3 mm 12 mps 711 mmHg 73%
    22:00 +3°C° 1.3 mm 13 mps 711 mmHg 69%
    23:00 +1°C° 0.1 mm 11 mps 714 mmHg 75%

    Day after tomorrow, 24 February, Monday

    Time Temperature Precipitation Wind Pressure Humidity
    00:00 0°C° 0.1 mm 9 mps 716 mmHg 81%
    01:00 -2°C° 0.1 mm 7 mps 718 mmHg 87%
    02:00 -2°C° 0.2 mm 7 mps 719 mmHg 85%
    03:00 -2°C° 0.2 mm 7 mps 720 mmHg 83%
    04:00 -3°C° 0.2 mm 6 mps 721 mmHg 81%
    05:00 -3°C° 0 mm 6 mps 721 mmHg 83%
    06:00 -2°C° 0 mm 5 mps 722 mmHg 85%
    07:00 -2°C° 0 mm 4 mps 723 mmHg 86%
    08:00 -1°C° 0 mm 4 mps 723 mmHg 82%
    09:00 0°C° 0 mm 5 mps 724 mmHg 78%
    10:00 0°C° 0 mm 5 mps 724 mmHg 74%
    11:00 +1°C° 0 mm 5 mps 724 mmHg 73%
    12:00 +1°C° 0 mm 5 mps 724 mmHg 71%
    13:00 +1°C° 0 mm 4 mps 723 mmHg 70%
    14:00 +3°C° 0 mm 4 mps 723 mmHg 70%
    15:00 +3°C° 0 mm 4 mps 722 mmHg 71%
    16:00 +3°C° 0 mm 3 mps 722 mmHg 71%
    17:00 +3°C° 0 mm 3 mps 721 mmHg 73%
    18:00 +1°C° 0 mm 4 mps 720 mmHg 74%
    19:00 +1°C° 0 mm 4 mps 720 mmHg 76%
    20:00 +1°C° 0.1 mm 4 mps 719 mmHg 77%
    21:00 +1°C° 0.1 mm 4 mps 718 mmHg 78%
    22:00 +1°C° 0.1 mm 4 mps 717 mmHg 79%
    23:00 +1°C° 0 mm 4 mps 716 mmHg 81%

    25 February, Tuesday

    Time Temperature Precipitation Wind Pressure Humidity
    00:00 +3°C° 0 mm 4 mps 716 mmHg 83%
    01:00 +3°C° 0 mm 4 mps 715 mmHg 85%
    02:00 +4°C° 0 mm 4 mps 715 mmHg 87%
    03:00 +3°C° 0 mm 5 mps 714 mmHg 90%
    04:00 +5°C° 0 mm 5 mps 714 mmHg 93%
    05:00 +5°C° 0.6 mm 5 mps 713 mmHg 92%
    06:00 +5°C° 0.6 mm 5 mps 713 mmHg 92%
    07:00 +5°C° 0.6 mm 5 mps 713 mmHg 92%
    08:00 +5°C° 0.7 mm 5 mps 712 mmHg 92%
    09:00 +5°C° 0.7 mm 5 mps 712 mmHg 91%
    10:00 +4°C° 0.7 mm 6 mps 712 mmHg 91%
    11:00 +5°C° 0.3 mm 6 mps 711 mmHg 89%
    12:00 +5°C° 0.3 mm 6 mps 711 mmHg 86%
    13:00 +6°C° 0.3 mm 7 mps 711 mmHg 84%
    14:00 +5°C° 0.7 mm 6 mps 710 mmHg 84%
    15:00 +5°C° 0.7 mm 6 mps 710 mmHg 84%
    16:00 +4°C° 0.7 mm 6 mps 709 mmHg 84%
    17:00 +4°C° 0.1 mm 6 mps 709 mmHg 82%
    18:00 +3°C° 0.1 mm 5 mps 710 mmHg 81%
    19:00 +2°C° 0.1 mm 5 mps 710 mmHg 79%
    20:00 +1°C° 0 mm 4 mps 709 mmHg 81%
    21:00 +1°C° 0 mm 3 mps 709 mmHg 83%
    22:00 +2°C° 0 mm 2 mps 709 mmHg 85%
    23:00 +1°C° 0 mm 3 mps 709 mmHg 86%

    26 February, Wednesday

    Time Temperature Precipitation Wind Pressure Humidity
    00:00 0°C° 0 mm 3 mps 708 mmHg 87%
    01:00 -1°C° 0 mm 4 mps 708 mmHg 89%
    02:00 -1°C° 0.1 mm 4 mps 707 mmHg 89%
    03:00 -1°C° 0.1 mm 5 mps 707 mmHg 89%
    04:00 -1°C° 0.1 mm 5 mps 706 mmHg 89%
    05:00 -1°C° 0.1 mm 5 mps 706 mmHg 89%
    06:00 -1°C° 0.1 mm 5 mps 705 mmHg 89%
    07:00 -1°C° 0.1 mm 5 mps 704 mmHg 89%
    08:00 -2°C° 0.2 mm 6 mps 704 mmHg 85%
    09:00 -1°C° 0.2 mm 7 mps 704 mmHg 81%
    10:00 -1°C° 0.2 mm 8 mps 704 mmHg 77%
    11:00 -1°C° 0.1 mm 8 mps 704 mmHg 69%
    12:00 0°C° 0.1 mm 8 mps 704 mmHg 62%
    13:00 0°C° 0.1 mm 8 mps 704 mmHg 54%
    14:00 0°C° 0 mm 7 mps 705 mmHg 54%
    15:00 +1°C° 0 mm 6 mps 705 mmHg 54%
    16:00 +1°C° 0 mm 5 mps 705 mmHg 54%
    17:00 0°C° 0.1 mm 5 mps 705 mmHg 63%
    18:00 -1°C° 0.1 mm 5 mps 706 mmHg 73%
    19:00 -2°C° 0.1 mm 4 mps 707 mmHg 82%
    20:00 -2°C° 0.1 mm 4 mps 707 mmHg 85%
    21:00 -2°C° 0.1 mm 5 mps 708 mmHg 87%
    22:00 -4°C° 0.1 mm 5 mps 709 mmHg 90%
    23:00 -4°C° 0 mm 5 mps 709 mmHg 89%

    27 February, Thursday

    Time Temperature Precipitation Wind Pressure Humidity
    00:00 -4°C° 0 mm 5 mps 709 mmHg 89%
    01:00 -4°C° 0 mm 5 mps 709 mmHg 89%
    02:00 -4°C° 0.1 mm 5 mps 709 mmHg 89%
    03:00 -4°C° 0.1 mm 5 mps 710 mmHg 89%
    04:00 -2°C° 0.1 mm 5 mps 710 mmHg 89%
    05:00 -2°C° 0.3 mm 5 mps 710 mmHg 90%
    06:00 -2°C° 0.3 mm 5 mps 711 mmHg 92%
    07:00 -2°C° 0.3 mm 5 mps 711 mmHg 93%
    08:00 -3°C° 0.2 mm 6 mps 712 mmHg 89%
    09:00 -2°C° 0.2 mm 7 mps 712 mmHg 84%
    10:00 -2°C° 0.2 mm 7 mps 713 mmHg 80%
    11:00 -1°C° 0.2 mm 7 mps 713 mmHg 77%
    12:00 -1°C° 0.2 mm 7 mps 714 mmHg 75%
    13:00 -1°C° 0.2 mm 8 mps 714 mmHg 73%
    14:00 -1°C° 0.1 mm 7 mps 715 mmHg 73%
    15:00 -1°C° 0.1 mm 6 mps 715 mmHg 73%
    16:00 -1°C° 0.1 mm 6 mps 715 mmHg 73%
    17:00 -1°C° 0 mm 5 mps 715 mmHg 78%
    18:00 -2°C° 0 mm 4 mps 716 mmHg 83%
    19:00 -2°C° 0 mm 2 mps 716 mmHg 87%
    20:00 -2°C° 0 mm 2 mps 716 mmHg 88%
    21:00 -3°C° 0 mm 2 mps 716 mmHg 89%
    22:00 -1°C° 0 mm 1 mps 716 mmHg 89%
    23:00 -1°C° 0 mm 1 mps 716 mmHg 90%
    Show more